| time (UTC) | temp F | wind direction | speed knots | gust knots | rain 1hr in | rain 24hr in | rain mn in | humidity % | barometer mb |
| 20260506155516 | 22 | 0.0 | 1.7 | 0.00 | 0.09 | 0.00 | 87 | 1015.1 | |
| 20260506154516 | 21 | 135 | 0.9 | 2.6 | 0.00 | 0.09 | 0.00 | 87 | 1014.5 |
| 20260506153516 | 20 | 135 | 0.9 | 3.5 | 0.00 | 0.09 | 0.00 | 87 | 1014.1 |
| 20260506152556 | 20 | 0.0 | 1.7 | 0.00 | 0.09 | 0.00 | 88 | 1014.4 | |
| 20260506151516 | 20 | 0.0 | 1.7 | 0.00 | 0.09 | 0.00 | 88 | 1014.3 | |
| 20260506150516 | 20 | 0.0 | 1.7 | 0.00 | 0.09 | 0.00 | 88 | 1014.3 | |
| 20260506145516 | 20 | 0.0 | 1.7 | 0.00 | 0.09 | 0.00 | 90 | 1014.3 | |
| 20260506144516 | 20 | 0.0 | 2.6 | 0.00 | 0.09 | 0.00 | 90 | 1014.1 | |
| 20260506143536 | 20 | 0.0 | 1.7 | 0.00 | 0.09 | 0.00 | 90 | 1014.1 | |
| 20260506142516 | 20 | 0.0 | 0.9 | 0.00 | 0.09 | 0.00 | 91 | 1014.0 | |
| 20260506141536 | 19 | 0.0 | 1.7 | 0.00 | 0.09 | 0.00 | 91 | 1014.0 | |
| 20260506140515 | 19 | 180 | 0.9 | 2.6 | 0.00 | 0.09 | 0.00 | 91 | 1013.7 |
| 20260506135536 | 19 | 180 | 0.9 | 2.6 | 0.00 | 0.09 | 0.00 | 92 | 1013.6 |
| 20260506134536 | 18 | 203 | 0.9 | 2.6 | 0.00 | 0.09 | 0.00 | 92 | 1013.4 |
| 20260506133515 | 18 | 203 | 0.9 | 2.6 | 0.00 | 0.09 | 0.00 | 92 | 1013.4 |
| 20260506132515 | 18 | 203 | 0.9 | 2.6 | 0.00 | 0.09 | 0.00 | 92 | 1013.3 |
| 20260506131535 | 18 | 203 | 0.9 | 3.5 | 0.00 | 0.09 | 0.00 | 92 | 1012.9 |
| 20260506130515 | 18 | 225 | 0.9 | 5.2 | 0.00 | 0.09 | 0.00 | 92 | 1012.7 |
| 20260506125515 | 18 | 180 | 0.9 | 3.5 | 0.00 | 0.09 | 0.00 | 92 | 1013.2 |
| 20260506124515 | 18 | 180 | 0.9 | 2.6 | 0.00 | 0.09 | 0.00 | 92 | 1013.1 |
| 20260506123516 | 18 | 0.0 | 2.6 | 0.00 | 0.09 | 0.00 | 92 | 1012.9 | |
| 20260506122515 | 18 | 0.0 | 1.7 | 0.00 | 0.09 | 0.00 | 92 | 1012.6 | |
| 20260506121516 | 18 | 180 | 0.9 | 1.7 | 0.00 | 0.09 | 0.00 | 92 | 1012.4 |
| 20260506120516 | 18 | 0.0 | 1.7 | 0.00 | 0.09 | 0.00 | 92 | 1012.5 | |
| 20260506115536 | 18 | 0.0 | 1.7 | 0.00 | 0.09 | 0.00 | 92 | 1012.4 | |
| 20260506114515 | 18 | 0.0 | 1.7 | 0.00 | 0.09 | 0.00 | 93 | 1012.0 | |
| 20260506113515 | 18 | 0.0 | 1.7 | 0.00 | 0.09 | 0.00 | 93 | 1011.9 | |
| 20260506112515 | 18 | 0.0 | 0.9 | 0.00 | 0.09 | 0.00 | 92 | 1011.8 | |
| 20260506111515 | 18 | 0.0 | 1.7 | 0.00 | 0.09 | 0.00 | 93 | 1011.6 | |
| 20260506110515 | 18 | 0.0 | 1.7 | 0.00 | 0.09 | 0.00 | 93 | 1011.5 | |
| 20260506105517 | 18 | 0.0 | 0.0 | 0.00 | 0.09 | 0.00 | 93 | 1011.3 | |
| 20260506104517 | 18 | 0.0 | 0.0 | 0.00 | 0.09 | 0.00 | 93 | 1011.4 | |
| 20260506103517 | 18 | 0.0 | 0.0 | 0.00 | 0.09 | 0.00 | 92 | 1011.4 | |
| 20260506102517 | 18 | 0.0 | 1.7 | 0.00 | 0.10 | 0.00 | 92 | 1011.1 | |
| 20260506101517 | 18 | 0.0 | 1.7 | 0.00 | 0.10 | 0.00 | 92 | 1011.3 | |
| 20260506100517 | 18 | 158 | 0.9 | 3.5 | 0.00 | 0.10 | 0.00 | 92 | 1011.4 |
| 20260506095517 | 18 | 158 | 0.9 | 4.3 | 0.00 | 0.10 | 0.00 | 92 | 1011.9 |
| 20260506094517 | 18 | 158 | 0.9 | 4.3 | 0.00 | 0.10 | 0.00 | 92 | 1012.1 |
| 20260506093517 | 18 | 158 | 0.9 | 3.5 | 0.00 | 0.10 | 0.00 | 92 | 1012.0 |
| 20260506092517 | 18 | 158 | 0.9 | 4.3 | 0.00 | 0.10 | 0.00 | 92 | 1011.7 |
| 20260506091517 | 18 | 135 | 2.6 | 6.1 | 0.00 | 0.10 | 0.00 | 92 | 1011.7 |
| 20260506090537 | 18 | 135 | 1.7 | 4.3 | 0.00 | 0.10 | 0.00 | 92 | 1011.7 |
| 20260506085517 | 19 | 135 | 2.6 | 7.0 | 0.00 | 0.10 | 0.00 | 92 | 1012.2 |
| 20260506084517 | 19 | 135 | 0.9 | 3.5 | 0.00 | 0.10 | 0.00 | 92 | 1012.1 |
| 20260506083517 | 19 | 135 | 0.9 | 3.5 | 0.00 | 0.10 | 0.00 | 92 | 1012.2 |
| 20260506082517 | 20 | 135 | 0.9 | 2.6 | 0.00 | 0.10 | 0.00 | 93 | 1012.2 |
| 20260506081537 | 20 | 180 | 0.9 | 3.5 | 0.00 | 0.10 | 0.00 | 93 | 1011.8 |
| 20260506080516 | 20 | 158 | 0.9 | 2.6 | 0.00 | 0.10 | 0.00 | 93 | 1012.4 |
| 20260506073516 | 20 | 135 | 0.9 | 2.6 | 0.00 | 0.10 | 0.00 | 93 | 1011.7 |
| 20260506072517 | 20 | 135 | 0.9 | 3.5 | 0.00 | 0.10 | 0.00 | 93 | 1012.1 |
| 20260506071517 | 20 | 135 | 0.9 | 3.5 | 0.00 | 0.10 | 0.00 | 93 | 1012.0 |
| 20260506070516 | 20 | 135 | 0.9 | 2.6 | 0.00 | 0.10 | 0.00 | 93 | 1012.1 |
| 20260506062516 | 20 | 135 | 0.9 | 1.7 | 0.00 | 0.10 | 0.00 | 92 | 1011.8 |
| 20260506061516 | 20 | 135 | 1.7 | 3.5 | 0.00 | 0.10 | 0.00 | 92 | 1011.6 |
| 20260506060516 | 20 | 158 | 0.9 | 3.5 | 0.00 | 0.10 | 0.00 | 92 | 1011.6 |
| 20260506050517 | 20 | 158 | 0.9 | 2.6 | 0.00 | 0.10 | 0.10 | 92 | 1010.8 |
| 20260506044517 | 20 | 0.0 | 1.7 | 0.00 | 0.10 | 0.10 | 92 | 1010.8 | |
| 20260506043517 | 20 | 158 | 0.9 | 4.3 | 0.00 | 0.10 | 0.10 | 92 | 1010.4 |
| 20260506042517 | 21 | 158 | 0.9 | 4.3 | 0.00 | 0.10 | 0.10 | 92 | 1009.7 |
| 20260506041517 | 21 | 135 | 0.9 | 2.6 | 0.00 | 0.10 | 0.10 | 92 | 1010.6 |
| 20260506040517 | 21 | 158 | 0.9 | 2.6 | 0.00 | 0.10 | 0.10 | 91 | 1010.4 |
| 20260506035517 | 21 | 0.0 | 3.5 | 0.00 | 0.10 | 0.10 | 92 | 1010.2 | |
| 20260506034517 | 21 | 158 | 0.9 | 3.5 | 0.00 | 0.10 | 0.10 | 92 | 1009.9 |
| 20260506033517 | 22 | 0.0 | 1.7 | 0.00 | 0.10 | 0.10 | 92 | 1009.8 | |
| 20260506032517 | 22 | 158 | 0.9 | 4.3 | 0.00 | 0.10 | 0.10 | 92 | 1009.5 |
| 20260506031516 | 22 | 0.0 | 0.0 | 0.00 | 0.10 | 0.10 | 92 | 1010.3 | |
| 20260506030536 | 22 | 0.0 | 1.7 | 0.00 | 0.10 | 0.10 | 92 | 1010.0 | |
| 20260506025537 | 22 | 0.0 | 0.9 | 0.00 | 0.10 | 0.10 | 92 | 1008.6 | |
| 20260506024516 | 22 | 0.0 | 0.0 | 0.00 | 0.10 | 0.10 | 92 | 1008.4 | |
| 20260506023517 | 22 | 0.0 | 1.7 | 0.00 | 0.10 | 0.10 | 91 | 1008.4 | |
| 20260506022516 | 22 | 0.0 | 0.0 | 0.00 | 0.11 | 0.10 | 91 | 1008.8 | |
| 20260506021516 | 23 | 0.0 | 0.0 | 0.00 | 0.13 | 0.10 | 91 | 1008.7 | |
| 20260506020516 | 23 | 0.0 | 0.9 | 0.00 | 0.13 | 0.10 | 90 | 1008.3 | |
| 20260506015516 | 23 | 0.0 | 1.7 | 0.00 | 0.13 | 0.10 | 90 | 1008.1 | |
| 20260506014536 | 23 | 0.0 | 1.7 | 0.00 | 0.13 | 0.10 | 90 | 1007.9 | |
| 20260506013516 | 24 | 0.0 | 1.7 | 0.00 | 0.13 | 0.10 | 90 | 1008.5 | |
| 20260506012516 | 24 | 0.0 | 1.7 | 0.00 | 0.13 | 0.10 | 90 | 1008.5 | |
| 20260506011516 | 24 | 0.0 | 1.7 | 0.00 | 0.13 | 0.10 | 90 | 1008.4 | |
| 20260506010516 | 24 | 0.0 | 1.7 | 0.00 | 0.13 | 0.10 | 90 | 1008.3 | |
| 20260506005516 | 25 | 158 | 0.9 | 1.7 | 0.00 | 0.13 | 0.10 | 90 | 1008.2 |
| 20260506004536 | 25 | 158 | 0.9 | 2.6 | 0.00 | 0.13 | 0.10 | 90 | 1007.9 |
| 20260506003536 | 25 | 180 | 1.7 | 5.2 | 0.00 | 0.13 | 0.10 | 89 | 1007.9 |
| 20260506002536 | 26 | 0.0 | 2.6 | 0.00 | 0.13 | 0.10 | 91 | 1008.7 | |
| 20260506001516 | 26 | 0.0 | 1.7 | 0.00 | 0.13 | 0.10 | 91 | 1008.4 | |
| 20260506000516 | 26 | 0.0 | 1.7 | 0.00 | 0.13 | 0.10 | 91 | 1008.4 | |
| 20260505235516 | 26 | 203 | 0.9 | 3.5 | 0.00 | 0.13 | 0.10 | 91 | 1008.1 |
| 20260505234516 | 26 | 203 | 0.9 | 1.7 | 0.00 | 0.13 | 0.10 | 91 | 1008.2 |
| 20260505233516 | 26 | 203 | 0.9 | 4.3 | 0.00 | 0.13 | 0.10 | 91 | 1008.0 |
| 20260505232536 | 26 | 203 | 0.9 | 2.6 | 0.00 | 0.14 | 0.10 | 92 | 1008.5 |
| 20260505231536 | 26 | 0.0 | 1.7 | 0.00 | 0.14 | 0.10 | 92 | 1008.2 | |
| 20260505230516 | 26 | 203 | 0.9 | 3.5 | 0.00 | 0.14 | 0.10 | 92 | 1008.0 |
| 20260505225516 | 26 | 158 | 0.9 | 4.3 | 0.00 | 0.14 | 0.10 | 92 | 1008.6 |
| 20260505224516 | 26 | 180 | 0.9 | 5.2 | 0.00 | 0.14 | 0.10 | 92 | 1008.7 |
| 20260505223516 | 26 | 0.0 | 2.6 | 0.01 | 0.14 | 0.10 | 92 | 1008.6 | |
| 20260505222516 | 27 | 0.0 | 0.0 | 0.01 | 0.14 | 0.10 | 91 | 1008.7 | |
| 20260505221536 | 27 | 203 | 0.9 | 2.6 | 0.01 | 0.14 | 0.10 | 91 | 1009.1 |
| 20260505220536 | 27 | 158 | 0.9 | 3.5 | 0.02 | 0.14 | 0.10 | 91 | 1008.4 |
| 20260505215536 | 28 | 158 | 1.7 | 4.3 | 0.02 | 0.14 | 0.10 | 90 | 1009.0 |
| 20260505214516 | 28 | 203 | 0.9 | 4.3 | 0.02 | 0.14 | 0.10 | 90 | 1008.6 |
| 20260505213616 | 29 | 180 | 1.7 | 4.3 | 0.01 | 0.13 | 0.09 | 91 | 1009.0 |
| 20260505212516 | 28 | 158 | 2.6 | 5.2 | 0.02 | 0.13 | 0.09 | 91 | 1008.7 |
| 20260505211515 | 29 | 248 | 0.9 | 5.2 | 0.02 | 0.13 | 0.09 | 92 | 1008.7 |
| 20260505210516 | 28 | 0.0 | 0.9 | 0.01 | 0.12 | 0.08 | 91 | 1008.4 | |
| 20260505205515 | 28 | 293 | 1.7 | 7.0 | 0.02 | 0.12 | 0.08 | 89 | 1008.4 |
| 20260505204515 | 29 | 0.0 | 0.0 | 0.02 | 0.12 | 0.08 | 90 | 1008.7 | |
| 20260505203515 | 29 | 203 | 0.9 | 3.5 | 0.02 | 0.12 | 0.08 | 90 | 1008.9 |
| 20260505202516 | 30 | 203 | 1.7 | 3.5 | 0.01 | 0.11 | 0.07 | 91 | 1008.8 |
| 20260505201515 | 29 | 203 | 2.6 | 6.1 | 0.01 | 0.11 | 0.07 | 91 | 1008.8 |
| 20260505200515 | 29 | 203 | 1.7 | 3.5 | 0.02 | 0.11 | 0.07 | 91 | 1008.9 |
| 20260505195516 | 29 | 225 | 0.9 | 1.7 | 0.01 | 0.10 | 0.06 | 92 | 1009.5 |
| 20260505194516 | 28 | 203 | 1.7 | 4.3 | 0.01 | 0.10 | 0.06 | 93 | 1008.3 |
| 20260505193516 | 27 | 0.0 | 2.6 | 0.01 | 0.10 | 0.06 | 92 | 1008.5 | |
| 20260505192516 | 27 | 248 | 2.6 | 6.1 | 0.02 | 0.10 | 0.06 | 92 | 1008.3 |
| 20260505191515 | 27 | 248 | 2.6 | 7.0 | 0.02 | 0.10 | 0.06 | 91 | 1008.2 |
| 20260505190515 | 28 | 248 | 1.7 | 6.1 | 0.02 | 0.09 | 0.05 | 90 | 1008.1 |
| 20260505185515 | 28 | 248 | 1.7 | 5.2 | 0.02 | 0.09 | 0.05 | 89 | 1008.1 |
| 20260505184515 | 29 | 225 | 0.9 | 3.5 | 0.02 | 0.09 | 0.05 | 90 | 1008.8 |
| 20260505183516 | 29 | 0.0 | 2.6 | 0.02 | 0.09 | 0.05 | 91 | 1008.9 | |
| 20260505182517 | 29 | 0.0 | 1.7 | 0.01 | 0.08 | 0.04 | 92 | 1008.4 | |
| 20260505181517 | 28 | 0.0 | 1.7 | 0.02 | 0.08 | 0.04 | 92 | 1008.5 | |
| 20260505180517 | 28 | 248 | 0.9 | 2.6 | 0.02 | 0.07 | 0.03 | 90 | 1008.3 |
| 20260505175537 | 28 | 203 | 1.7 | 4.3 | 0.02 | 0.07 | 0.03 | 91 | 1008.2 |
| 20260505174517 | 28 | 203 | 0.9 | 3.5 | 0.02 | 0.07 | 0.03 | 91 | 1008.3 |
| 20260505173517 | 29 | 0.0 | 1.7 | 0.02 | 0.07 | 0.03 | 92 | 1008.5 | |
| 20260505172517 | 28 | 203 | 0.9 | 2.6 | 0.02 | 0.07 | 0.03 | 92 | 1008.6 |
| 20260505171537 | 28 | 0.0 | 1.7 | 0.01 | 0.06 | 0.02 | 93 | 1008.7 | |
| 20260505170517 | 28 | 203 | 0.9 | 4.3 | 0.00 | 0.05 | 0.01 | 93 | 1008.6 |
| 20260505165517 | 28 | 203 | 0.9 | 3.5 | 0.00 | 0.05 | 0.01 | 93 | 1008.4 |
| 20260505164517 | 28 | 0.0 | 1.7 | 0.00 | 0.05 | 0.01 | 93 | 1008.4 | |
| 20260505163517 | 28 | 203 | 1.7 | 4.3 | 0.00 | 0.05 | 0.01 | 93 | 1008.4 |
| 20260505162538 | 28 | 0.0 | 1.7 | 0.00 | 0.05 | 0.01 | 94 | 1008.4 | |
| 20260505161517 | 28 | 180 | 0.9 | 2.6 | 0.00 | 0.05 | 0.01 | 94 | 1008.3 |
| 20260505160557 | 28 | 0.0 | 1.7 | 0.00 | 0.05 | 0.01 | 94 | 1008.1 |